Time,TemperatureF,DewpointF,PressureIn,WindDirection,WindDirectionDegrees,WindSpeedMPH,WindSpeedGustMPH,Humidity,HourlyPrecipIn,Conditions,Clouds,dailyrainin,SolarRadiationWatts/m^2,SoftwareType,DateUTC
2013-07-15 00:00:00,71.0,71.0,-100.00,ESE,112,0.0,-999.0,99,-99.99,,,-99.99,0.000000,,2013-07-15 04:00:00,
2013-07-15 00:33:00,71.0,71.0,-100.00,ESE,112,0.0,-999.0,99,-99.99,,,-99.99,0.000000,,2013-07-15 04:33:00,
2013-07-15 00:42:00,71.0,71.0,-100.00,ESE,112,0.0,-999.0,99,-99.99,,,-99.99,0.000000,,2013-07-15 04:42:00,
2013-07-15 00:54:00,71.0,71.0,-100.00,ESE,112,0.0,-999.0,99,-99.99,,,-99.99,0.000000,,2013-07-15 04:54:00,
2013-07-15 02:00:00,73.0,72.0,-100.00,SE,135,2.0,-999.0,94,-99.99,,,-99.99,0.000000,,2013-07-15 06:00:00,
2013-07-15 02:42:00,73.0,72.0,-100.00,SE,135,2.0,-999.0,94,-99.99,,,-99.99,0.000000,,2013-07-15 06:42:00,
2013-07-15 02:53:00,73.0,72.0,-100.00,SE,135,2.0,-999.0,94,-99.99,,,-99.99,0.000000,,2013-07-15 06:53:00,
2013-07-15 03:00:00,74.0,71.0,-100.00,SE,135,2.0,-999.0,90,-99.99,,,-99.99,0.000000,,2013-07-15 07:00:00,
2013-07-15 03:44:00,74.0,71.0,-100.00,SE,135,2.0,-999.0,90,-99.99,,,-99.99,0.000000,,2013-07-15 07:44:00,
2013-07-15 03:53:00,74.0,71.0,-100.00,SE,135,2.0,-999.0,90,-99.99,,,-99.99,0.000000,,2013-07-15 07:53:00,
2013-07-15 04:00:00,74.0,71.0,-100.00,SE,135,2.0,-999.0,90,-99.99,,,-99.99,0.000000,,2013-07-15 08:00:00,
2013-07-15 04:43:00,74.0,71.0,-100.00,SE,135,2.0,-999.0,90,-99.99,,,-99.99,0.000000,,2013-07-15 08:43:00,
2013-07-15 04:53:00,74.0,71.0,-100.00,SE,135,2.0,-999.0,90,-99.99,,,-99.99,0.000000,,2013-07-15 08:53:00,
2013-07-15 06:00:00,69.0,69.0,-100.00,SSE,157,0.0,-999.0,99,-99.99,,,-99.99,0.000000,,2013-07-15 10:00:00,
2013-07-15 06:43:00,69.0,69.0,-100.00,SSE,157,0.0,-999.0,99,-99.99,,,-99.99,0.000000,,2013-07-15 10:43:00,
2013-07-15 06:53:00,69.0,69.0,-100.00,SSE,157,0.0,-999.0,99,-99.99,,,-99.99,0.000000,,2013-07-15 10:53:00,
2013-07-15 08:00:00,73.0,72.0,-100.00,ENE,67,0.0,-999.0,98,-99.99,,,-99.99,117.160004,,2013-07-15 12:00:00,
2013-07-15 08:42:00,73.0,72.0,-100.00,ENE,67,0.0,-999.0,98,-99.99,,,-99.99,117.160004,,2013-07-15 12:42:00,
2013-07-15 08:53:00,73.0,72.0,-100.00,ENE,67,0.0,-999.0,98,-99.99,,,-99.99,117.160004,,2013-07-15 12:53:00,
2013-07-15 09:00:00,79.0,74.0,-100.00,ESE,112,1.0,-999.0,85,-99.99,,,-99.99,280.720001,,2013-07-15 13:00:00,
2013-07-15 09:43:00,79.0,74.0,-100.00,ESE,112,1.0,-999.0,85,-99.99,,,-99.99,280.720001,,2013-07-15 13:43:00,
2013-07-15 09:53:00,79.0,74.0,-100.00,ESE,112,1.0,-999.0,85,-99.99,,,-99.99,280.720001,,2013-07-15 13:53:00,
2013-07-15 10:00:00,84.0,75.0,-100.00,SE,135,1.0,-999.0,74,-99.99,,,-99.99,448.920013,,2013-07-15 14:00:00,
2013-07-15 10:42:00,84.0,75.0,-100.00,SE,135,1.0,-999.0,74,-99.99,,,-99.99,448.920013,,2013-07-15 14:42:00,
2013-07-15 12:53:00,88.0,74.0,-100.00,SSW,202,2.0,-999.0,62,-99.99,,,-99.99,640.320007,,2013-07-15 16:53:00,
2013-07-15 13:00:00,90.0,73.0,-100.00,SE,135,2.0,-999.0,57,-99.99,,,-99.99,718.039978,,2013-07-15 17:00:00,
2013-07-15 13:50:00,90.0,73.0,-100.00,SE,135,2.0,-999.0,57,-99.99,,,-99.99,718.039978,,2013-07-15 17:50:00,
2013-07-15 14:00:00,88.0,74.0,-100.00,West,270,4.0,-999.0,63,-99.99,,,-99.99,430.359985,,2013-07-15 18:00:00,
2013-07-15 14:45:00,88.0,74.0,-100.00,West,270,4.0,-999.0,63,-99.99,,,-99.99,430.359985,,2013-07-15 18:45:00,
2013-07-15 14:59:00,88.0,74.0,-100.00,West,270,4.0,-999.0,63,-99.99,,,-99.99,430.359985,,2013-07-15 18:59:00,
2013-07-15 15:00:00,90.0,74.0,-100.00,South,180,2.0,-999.0,61,-99.99,,,-99.99,505.760010,,2013-07-15 19:00:00,
2013-07-15 15:49:00,90.0,74.0,-100.00,South,180,2.0,-999.0,61,-99.99,,,-99.99,505.760010,,2013-07-15 19:49:00,
2013-07-15 15:56:00,90.0,74.0,-100.00,South,180,2.0,-999.0,61,-99.99,,,-99.99,505.760010,,2013-07-15 19:56:00,
2013-07-15 16:00:00,88.0,74.0,-100.00,ESE,112,1.0,-999.0,63,-99.99,,,-99.99,221.559998,,2013-07-15 20:00:00,
2013-07-15 16:43:00,88.0,74.0,-100.00,ESE,112,1.0,-999.0,63,-99.99,,,-99.99,221.559998,,2013-07-15 20:43:00,
2013-07-15 17:00:00,76.0,75.0,-100.00,SSW,202,5.0,-999.0,96,0.84,,,-99.99,27.840000,,2013-07-15 21:00:00,
2013-07-15 17:48:00,76.0,75.0,-100.00,SSW,202,5.0,-999.0,96,0.84,,,-99.99,27.840000,,2013-07-15 21:48:00,
2013-07-15 18:00:00,74.0,74.0,-100.00,WSW,247,2.0,-999.0,102,0.01,,,-99.99,42.919998,,2013-07-15 22:00:00,
2013-07-15 18:44:00,74.0,74.0,-100.00,WSW,247,2.0,-999.0,102,0.01,,,-99.99,42.919998,,2013-07-15 22:44:00,
2013-07-15 18:54:00,74.0,74.0,-100.00,WSW,247,2.0,-999.0,102,0.01,,,-99.99,42.919998,,2013-07-15 22:54:00,
2013-07-15 22:00:00,75.0,75.0,-100.00,NE,45,0.0,-999.0,102,-99.99,,,-99.99,5.800000,,2013-07-16 02:00:00,
2013-07-15 22:54:00,75.0,75.0,-100.00,NE,45,0.0,-999.0,102,-99.99,,,-99.99,5.800000,,2013-07-16 02:54:00,
2013-07-15 23:00:00,74.0,74.0,-100.00,NE,45,0.0,-999.0,102,-99.99,,,-99.99,0.000000,,2013-07-16 03:00:00,
2013-07-15 23:58:00,74.0,74.0,-100.00,NE,45,0.0,-999.0,102,-99.99,,,-99.99,0.000000,,2013-07-16 03:58:00,